Year,Month,Day,Hour,Minute,Value (Times are PST for temperature in C)
2010,09,26,10,48,12.10
2010,09,26,10,49,12.10
2010,09,26,10,50,12.00
2010,09,26,10,51,12.00
2010,09,26,10,52,12.00
2010,09,26,10,53,12.00
2010,09,26,10,54,12.00
2010,09,26,10,55,12.10
2010,09,26,10,56,12.10
2010,09,26,10,57,12.10
2010,09,26,10,58,12.20
2010,09,26,10,59,12.10
2010,09,26,11,00,12.10
2010,09,26,11,01,12.10
2010,09,26,11,02,12.10
2010,09,26,11,03,12.10
2010,09,26,11,04,12.10
2010,09,26,11,05,12.10
2010,09,26,11,06,12.10
2010,09,26,11,07,12.10
2010,09,26,11,08,12.20
2010,09,26,11,09,12.20
2010,09,26,11,10,12.20
2010,09,26,11,11,12.20
2010,09,26,11,12,12.20
2010,09,26,11,13,12.20
2010,09,26,11,14,12.20
2010,09,26,11,15,12.20
2010,09,26,11,16,12.30
2010,09,26,11,17,12.30
2010,09,26,11,18,12.40
2010,09,26,11,19,12.40
2010,09,26,11,20,12.50
2010,09,26,11,21,12.50
2010,09,26,11,22,12.60
2010,09,26,11,23,12.60
2010,09,26,11,24,12.60
2010,09,26,11,25,12.60
2010,09,26,11,26,12.60
2010,09,26,11,27,12.60
2010,09,26,11,28,12.60
2010,09,26,11,29,12.60
2010,09,26,11,30,12.60
2010,09,26,11,31,12.60
2010,09,26,11,32,12.60
2010,09,26,11,33,12.50
2010,09,26,11,34,12.50
2010,09,26,11,35,12.50
2010,09,26,11,36,12.50
2010,09,26,11,37,12.50
2010,09,26,11,38,12.50
2010,09,26,11,39,12.50
2010,09,26,11,40,12.50
2010,09,26,11,41,12.50
2010,09,26,11,42,12.40
2010,09,26,11,43,12.40
2010,09,26,11,44,12.40
2010,09,26,11,45,12.40
2010,09,26,11,46,12.40
2010,09,26,11,47,12.40
2010,09,26,11,48,12.40
2010,09,26,11,49,12.40
2010,09,26,11,50,12.50
2010,09,26,11,51,12.50
2010,09,26,11,52,12.60
2010,09,26,11,53,12.70
2010,09,26,11,54,12.80
2010,09,26,11,55,12.80
2010,09,26,11,56,12.70
2010,09,26,11,57,12.70
2010,09,26,11,58,12.60
2010,09,26,11,59,12.60
2010,09,26,12,00,12.70
2010,09,26,12,01,12.80
2010,09,26,12,02,13.00
2010,09,26,12,03,13.10
2010,09,26,12,04,13.20
2010,09,26,12,05,13.30
2010,09,26,12,06,13.40
2010,09,26,12,07,13.40
2010,09,26,12,08,13.40
2010,09,26,12,09,13.50
2010,09,26,12,10,13.50
2010,09,26,12,11,13.40
2010,09,26,12,12,13.40
2010,09,26,12,13,13.40
2010,09,26,12,14,13.40
2010,09,26,12,15,13.30
2010,09,26,12,16,13.30
2010,09,26,12,17,13.10
2010,09,26,12,18,13.00
2010,09,26,12,19,13.00
2010,09,26,12,20,12.90
2010,09,26,12,21,12.80
2010,09,26,12,22,12.70
2010,09,26,12,23,12.60
2010,09,26,12,24,12.60
2010,09,26,12,25,12.60
2010,09,26,12,26,12.60
2010,09,26,12,27,12.50
2010,09,26,12,28,12.50
2010,09,26,12,29,12.40
2010,09,26,12,30,12.30
2010,09,26,12,31,12.20
2010,09,26,12,32,12.20
2010,09,26,12,33,12.20
2010,09,26,12,34,12.20
2010,09,26,12,35,12.20
2010,09,26,12,36,12.20
2010,09,26,12,37,12.20
2010,09,26,12,38,12.20
2010,09,26,12,39,12.30
2010,09,26,12,40,12.30
2010,09,26,12,41,12.30
2010,09,26,12,42,12.30
2010,09,26,12,43,12.30
2010,09,26,12,44,12.30
2010,09,26,12,45,12.30
2010,09,26,12,46,12.40
2010,09,26,12,47,12.40
2010,09,26,12,48,12.40
2010,09,26,12,49,12.40
2010,09,26,12,50,12.40
2010,09,26,12,51,12.30
2010,09,26,12,52,12.30
2010,09,26,12,53,12.40
2010,09,26,12,54,12.50
2010,09,26,12,55,12.60
2010,09,26,12,56,12.60
2010,09,26,12,57,12.70
2010,09,26,12,58,12.70
2010,09,26,12,59,12.70
2010,09,26,13,00,12.70
2010,09,26,13,01,12.70
2010,09,26,13,02,12.70
2010,09,26,13,03,12.60
2010,09,26,13,04,12.50
2010,09,26,13,05,12.50
2010,09,26,13,06,12.40
2010,09,26,13,07,12.40
2010,09,26,13,08,12.40
2010,09,26,13,09,12.40
2010,09,26,13,10,12.40
2010,09,26,13,11,12.40
2010,09,26,13,12,12.50
2010,09,26,13,13,12.50
2010,09,26,13,14,12.60
2010,09,26,13,15,12.60
2010,09,26,13,16,12.50
2010,09,26,13,17,12.60
2010,09,26,13,18,12.60
2010,09,26,13,19,12.60
2010,09,26,13,20,12.60
2010,09,26,13,21,12.50
2010,09,26,13,22,12.50
2010,09,26,13,23,12.50
2010,09,26,13,24,12.50
2010,09,26,13,25,12.60
2010,09,26,13,26,12.60
2010,09,26,13,27,12.60
2010,09,26,13,28,12.60
2010,09,26,13,29,12.50
2010,09,26,13,30,12.50
2010,09,26,13,31,12.40
2010,09,26,13,32,12.50
2010,09,26,13,33,12.50
2010,09,26,13,34,12.50
2010,09,26,13,35,12.50
2010,09,26,13,36,12.50
2010,09,26,13,37,12.50
2010,09,26,13,38,12.50
2010,09,26,13,39,12.40
2010,09,26,13,40,12.40
2010,09,26,13,41,12.40
2010,09,26,13,42,12.50
2010,09,26,13,43,12.50
2010,09,26,13,44,12.60
2010,09,26,13,45,12.60
2010,09,26,13,46,12.70
2010,09,26,13,47,12.80
2010,09,26,13,48,12.90
2010,09,26,13,49,12.90
2010,09,26,13,50,13.00
2010,09,26,13,51,13.00
2010,09,26,13,52,13.10
2010,09,26,13,53,13.10
2010,09,26,13,54,13.20
2010,09,26,13,55,13.20
2010,09,26,13,56,13.20
2010,09,26,13,57,13.20
2010,09,26,13,58,13.10
2010,09,26,13,59,13.00
2010,09,26,14,00,12.90
2010,09,26,14,01,12.90
2010,09,26,14,02,12.90
2010,09,26,14,03,12.90
2010,09,26,14,04,12.90
2010,09,26,14,05,13.00
2010,09,26,14,06,13.00
2010,09,26,14,07,13.10
2010,09,26,14,08,13.10
2010,09,26,14,09,13.10
2010,09,26,14,10,13.20
2010,09,26,14,11,13.20
2010,09,26,14,12,13.30
2010,09,26,14,13,13.30
2010,09,26,14,14,13.30
2010,09,26,14,15,13.30
2010,09,26,14,16,13.30
2010,09,26,14,17,13.30
2010,09,26,14,18,13.30
2010,09,26,14,19,13.30
2010,09,26,14,20,13.30
2010,09,26,14,21,13.30
2010,09,26,14,22,13.30
2010,09,26,14,23,13.30
2010,09,26,14,24,13.20
2010,09,26,14,25,13.10
2010,09,26,14,26,13.00
2010,09,26,14,27,12.90
2010,09,26,14,28,12.90
2010,09,26,14,29,12.80
2010,09,26,14,30,12.80
2010,09,26,14,31,12.80
2010,09,26,14,32,12.80
2010,09,26,14,33,12.80
2010,09,26,14,34,12.80
2010,09,26,14,35,12.80
2010,09,26,14,36,12.80
2010,09,26,14,37,12.80
2010,09,26,14,38,12.80
2010,09,26,14,39,12.80
2010,09,26,14,40,12.80
2010,09,26,14,41,12.80
2010,09,26,14,42,12.80
2010,09,26,14,43,12.80
2010,09,26,14,44,12.80
2010,09,26,14,45,12.90
2010,09,26,14,46,12.90
2010,09,26,14,47,12.90
2010,09,26,14,48,13.00
2010,09,26,14,49,13.00
2010,09,26,14,50,13.00
2010,09,26,14,51,13.00
2010,09,26,14,52,13.00
2010,09,26,14,53,13.10
2010,09,26,14,54,13.10
2010,09,26,14,55,13.10
2010,09,26,14,56,13.10
2010,09,26,14,57,13.10
2010,09,26,14,58,13.10
2010,09,26,14,59,13.10
2010,09,26,15,00,13.20
2010,09,26,15,01,13.20
2010,09,26,15,02,13.20
2010,09,26,15,03,13.20
2010,09,26,15,04,13.20
2010,09,26,15,05,13.20
2010,09,26,15,06,13.20
2010,09,26,15,07,13.10
2010,09,26,15,08,13.10
2010,09,26,15,09,12.90
2010,09,26,15,10,12.80
2010,09,26,15,11,12.80
2010,09,26,15,12,12.80
2010,09,26,15,13,12.80
2010,09,26,15,14,12.80
2010,09,26,15,15,12.70
2010,09,26,15,16,12.70
2010,09,26,15,17,12.60
2010,09,26,15,18,12.60
2010,09,26,15,19,12.60
2010,09,26,15,20,12.60
2010,09,26,15,21,12.60
2010,09,26,15,22,12.60
2010,09,26,15,23,12.60
2010,09,26,15,24,12.70
2010,09,26,15,25,12.80
2010,09,26,15,26,12.80
2010,09,26,15,27,12.90
2010,09,26,15,28,12.90
2010,09,26,15,29,12.90
2010,09,26,15,30,13.00
2010,09,26,15,31,13.00
2010,09,26,15,32,13.10
2010,09,26,15,33,13.10
2010,09,26,15,34,13.10
2010,09,26,15,35,13.10
2010,09,26,15,36,13.10
2010,09,26,15,37,13.10
2010,09,26,15,38,13.10
2010,09,26,15,39,13.10
2010,09,26,15,40,13.10
2010,09,26,15,41,13.10
2010,09,26,15,42,13.10
2010,09,26,15,43,13.10
